CW0237 Weather Reports


Display with metric or nautical units.
time (UTC)temp
F
wind
direction
speed
MPH
gust
MPH
rain 1hr
in
rain 24hr
in
rain mn
in
humidity
%
barometer
mb
20200225223722 51 355 0.0 0.0 0.00 0.00 0.00 72 1010.8
20200225222723 51 355 0.0 0.0 0.00 0.00 0.00 70 1010.8
20200225221713 51 355 0.0 0.0 0.00 0.00 0.00 70 1010.8
20200225220713 52 355 0.0 0.0 0.00 0.00 0.00 69 1010.7
20200225215712 52 355 0.0 0.0 0.00 0.00 0.00 69 1010.6
20200225214713 52 355 0.0 0.0 0.00 0.00 0.00 69 1010.4
20200225213713 52 355 0.0 0.0 0.00 0.00 0.00 68 1010.3
20200225212713 52 355 0.0 0.0 0.00 0.00 0.00 68 1010.3
20200225211713 53 355 0.0 0.0 0.00 0.00 0.00 68 1010.4
20200225210712 53 355 0.0 0.0 0.00 0.00 0.00 67 1010.3
20200225205712 53 355 0.0 0.0 0.00 0.00 0.00 67 1010.0
20200225204713 53 355 1.0 2.0 0.00 0.00 0.00 66 1010.0
20200225203714 53 355 2.0 3.0 0.00 0.00 0.00 66 1009.9
20200225202713 54 355 1.0 2.0 0.00 0.00 0.00 66 1009.9
20200225201713 53 355 1.0 2.0 0.00 0.00 0.00 66 1009.8
20200225200712 54 355 1.0 3.0 0.00 0.00 0.00 66 1009.8
20200225195724 53 355 2.0 3.0 0.00 0.00 0.00 67 1009.9
20200225194712 53 348 1.0 3.0 0.00 0.00 0.00 68 1010.0
20200225193713 53 347 2.0 3.0 0.00 0.00 0.00 68 1010.0
20200225192714 53 100 1.0 3.0 0.00 0.00 0.00 69 1010.0
20200225191719 53 150 1.0 3.0 0.00 0.00 0.00 69 1009.9
20200225190719 53 152 1.0 2.0 0.00 0.00 0.00 68 1009.9
20200225185718 54 233 0.0 3.0 0.00 0.00 0.00 67 1010.0
20200225184713 54 291 2.0 3.0 0.00 0.00 0.00 68 1010.0
20200225183712 53 357 2.0 3.0 0.00 0.00 0.00 68 1010.2
20200225182713 52 156 2.0 3.0 0.00 0.00 0.00 70 1010.3
20200225181714 52 254 1.0 3.0 0.00 0.00 0.00 70 1010.4
20200225180712 52 195 2.0 3.0 0.00 0.00 0.00 72 1010.4
20200225175713 51 210 1.0 2.0 0.00 0.00 0.00 73 1010.5
20200225174712 51 210 0.0 1.0 0.00 0.00 0.00 73 1010.6
20200225173712 51 210 0.0 1.0 0.00 0.00 0.00 73 1010.8
20200225172713 51 210 1.0 2.0 0.00 0.00 0.00 73 1010.9
20200225171713 51 210 0.0 3.0 0.00 0.00 0.00 73 1010.9
20200225170713 50 155 1.0 3.0 0.00 0.00 0.00 74 1011.0
20200225165712 51 189 1.0 3.0 0.00 0.00 0.00 73 1011.2
20200225164713 51 118 1.0 2.0 0.00 0.00 0.00 73 1011.4
20200225163712 51 114 1.0 3.0 0.00 0.00 0.00 74 1011.5
20200225162712 51 241 1.0 3.0 0.00 0.00 0.00 74 1011.4
20200225161713 50 191 1.0 3.0 0.00 0.00 0.00 74 1011.6
20200225160712 49 225 2.0 3.0 0.00 0.00 0.00 75 1011.7
20200225155713 49 239 1.0 3.0 0.00 0.00 0.00 74 1011.7
20200225154721 49 187 2.0 3.0 0.00 0.00 0.00 75 1011.6
20200225153721 49 223 1.0 2.0 0.00 0.00 0.00 78 1011.7
20200225152721 49 227 1.0 3.0 0.00 0.00 0.00 76 1011.6
20200225151712 48 226 1.0 3.0 0.00 0.00 0.00 80 1011.6
20200225150713 47 240 1.0 2.0 0.00 0.00 0.00 81 1011.6
20200225145712 47 252 2.0 3.0 0.00 0.00 0.00 82 1011.7
20200225144712 46 194 1.0 3.0 0.00 0.00 0.00 83 1011.7
20200225143713 46 214 2.0 3.0 0.00 0.00 0.00 83 1011.8
20200225142712 46 220 1.0 3.0 0.00 0.00 0.00 84 1011.8
20200225141713 45 188 2.0 6.0 0.00 0.00 0.00 85 1011.8
20200225140713 45 248 3.0 6.0 0.00 0.00 0.00 86 1011.8
20200225135712 44 214 1.0 6.0 0.00 0.00 0.00 87 1011.8
20200225134712 44 219 3.0 5.0 0.00 0.00 0.00 87 1011.8
20200225133712 43 190 1.0 3.0 0.00 0.00 0.00 87 1012.0
20200225132713 42 209 1.0 2.0 0.00 0.00 0.00 87 1012.0
20200225131713 42 209 0.0 1.0 0.00 0.00 0.00 88 1011.9
20200225130713 41 209 0.0 1.0 0.00 0.00 0.00 88 1011.8
20200225125713 41 209 1.0 2.0 0.00 0.00 0.00 88 1011.8
20200225124713 40 209 1.0 2.0 0.00 0.00 0.00 88 1011.8
20200225123712 40 209 1.0 2.0 0.00 0.00 0.00 88 1011.8
20200225122713 40 209 0.0 0.0 0.00 0.00 0.00 88 1011.4
20200225121719 40 209 0.0 1.0 0.00 0.00 0.00 88 1011.1
20200225120718 40 209 0.0 1.0 0.00 0.00 0.00 88 1011.1
20200225115727 40 209 0.0 0.0 0.00 0.00 0.00 89 1011.0
20200225114722 40 209 0.0 0.0 0.00 0.00 0.00 88 1011.0
20200225113714 40 209 0.0 0.0 0.00 0.00 0.00 88 1011.1
20200225112712 40 209 0.0 0.0 0.00 0.00 0.00 88 1011.2
20200225111713 41 208 0.0 0.0 0.00 0.00 0.00 88 1011.5
20200225110712 41 209 0.0 1.0 0.00 0.00 0.00 88 1011.6
20200225105713 41 209 0.0 2.0 0.00 0.00 0.00 88 1011.7
20200225104713 41 209 0.0 0.0 0.00 0.00 0.00 88 1011.6
20200225103713 41 209 0.0 0.0 0.00 0.00 0.00 88 1011.5
20200225102713 41 209 0.0 0.0 0.00 0.00 0.00 88 1011.6
20200225101712 41 209 0.0 0.0 0.00 0.00 0.00 88 1011.7
20200225100712 41 208 0.0 1.0 0.00 0.00 0.00 88 1012.0
20200225095713 41 208 0.0 0.0 0.00 0.00 0.00 87 1012.0
20200225094712 41 208 0.0 0.0 0.00 0.00 0.00 88 1012.1
20200225093714 41 208 0.0 0.0 0.00 0.00 0.00 87 1012.2
20200225092712 41 209 0.0 0.0 0.00 0.00 0.00 87 1012.2
20200225091717 41 209 0.0 1.0 0.00 0.00 0.00 87 1011.9
20200225090712 42 209 1.0 2.0 0.00 0.00 0.00 87 1011.9
20200225085713 42 209 1.0 2.0 0.00 0.00 0.00 87 1011.7
20200225084715 42 209 1.0 3.0 0.00 0.00 0.00 87 1011.7
20200225083718 42 214 1.0 3.0 0.00 0.00 0.00 86 1011.8
20200225082719 42 206 1.0 3.0 0.00 0.00 0.00 86 1011.8
20200225081721 42 150 1.0 6.0 0.00 0.00 0.00 86 1011.6
20200225080712 42 200 1.0 3.0 0.00 0.00 0.00 85 1011.9
20200225075712 42 207 1.0 3.0 0.00 0.00 0.00 85 1012.1
20200225074712 42 194 1.0 5.0 0.00 0.00 0.00 84 1012.1
20200225073712 42 190 1.0 2.0 0.00 0.00 0.00 83 1012.1
20200225072713 41 189 1.0 2.0 0.00 0.00 0.00 82 1012.2
20200225071713 41 190 0.0 0.0 0.00 0.00 0.00 81 1012.0
20200225070712 41 189 0.0 0.0 0.00 0.00 0.00 81 1012.0
20200225065712 41 189 0.0 2.0 0.00 0.00 0.00 80 1012.1
20200225064713 41 190 0.0 0.0 0.00 0.00 0.00 80 1012.4
20200225063712 41 189 0.0 0.0 0.00 0.00 0.00 79 1012.3
20200225062713 42 190 0.0 1.0 0.00 0.00 0.00 79 1012.4
20200225061712 42 190 0.0 3.0 0.00 0.00 0.00 78 1012.5
20200225060713 42 189 1.0 3.0 0.00 0.00 0.00 77 1012.7
20200225055712 42 181 1.0 3.0 0.00 0.00 0.00 75 1012.6
20200225054712 43 207 2.0 3.0 0.00 0.00 0.00 72 1013.0
20200225053713 43 192 1.0 3.0 0.00 0.00 0.00 70 1013.2
20200225052713 43 217 2.0 3.0 0.00 0.00 0.00 68 1013.4
20200225051713 43 200 2.0 3.0 0.00 0.00 0.00 66 1013.4
20200225050718 43 195 0.0 3.0 0.00 0.00 0.00 66 1013.3
20200225045724 42 195 1.0 3.0 0.00 0.00 0.00 66 1013.4
20200225044722 42 202 1.0 3.0 0.00 0.00 0.00 66 1013.4
20200225043723 41 202 1.0 2.0 0.00 0.00 0.00 69 1013.5
20200225042712 42 202 0.0 2.0 0.00 0.00 0.00 67 1013.3
20200225041713 41 202 1.0 3.0 0.00 0.00 0.00 68 1013.3
20200225040713 41 202 1.0 2.0 0.00 0.00 0.00 68 1013.4
20200225035713 40 202 1.0 1.0 0.00 0.00 0.00 70 1013.5
20200225034713 41 202 0.0 1.0 0.00 0.00 0.00 69 1013.7
20200225033713 40 202 0.0 1.0 0.00 0.00 0.00 71 1013.8
20200225032713 40 202 0.0 1.0 0.00 0.00 0.00 71 1014.0
20200225031713 40 203 1.0 1.0 0.00 0.00 0.00 70 1013.9
20200225030713 41 207 0.0 2.0 0.00 0.00 0.00 68 1013.9
20200225025713 42 205 0.0 1.0 0.00 0.00 0.00 67 1013.8
20200225024713 43 203 0.0 2.0 0.00 0.00 0.00 63 1013.8
20200225023713 45 200 0.0 3.0 0.00 0.00 0.00 61 1013.9
20200225022712 46 200 1.0 3.0 0.00 0.00 0.00 61 1013.9
20200225021713 46 177 1.0 2.0 0.00 0.00 0.00 61 1014.0
20200225020712 46 176 1.0 3.0 0.00 0.00 0.00 60 1014.0
20200225015712 47 178 2.0 5.0 0.00 0.00 0.00 59 1014.1
20200225014712 47 209 1.0 3.0 0.00 0.00 0.00 59 1014.2
20200225013713 47 188 1.0 3.0 0.00 0.00 0.00 59 1014.3
20200225012721 48 205 2.0 9.0 0.00 0.00 0.00 58 1014.3
20200225010718 48 208 2.0 5.0 0.00 0.00 0.00 57 1014.4
20200225005713 48 200 1.0 3.0 0.00 0.00 0.00 57 1014.2
20200225004712 49 198 1.0 7.0 0.00 0.00 0.00 56 1014.1
20200225003712 49 193 3.0 7.0 0.00 0.00 0.00 55 1014.0
20200225002713 50 182 2.0 6.0 0.00 0.00 0.00 54 1013.8
20200225001713 50 199 2.0 5.0 0.00 0.00 0.00 53 1013.7
20200225000713 51 192 2.0 8.0 0.00 0.00 0.00 51 1013.6
20200224235713 51 190 2.0 9.0 0.00 0.00 0.00 50 1013.5
20200224234712 52 198 3.0 8.0 0.00 0.00 0.00 49 1013.5
20200224233712 52 196 3.0 7.0 0.00 0.00 0.00 48 1013.6
20200224232713 53 199 3.0 8.0 0.00 0.00 0.00 47 1013.6
20200224231713 53 204 2.0 7.0 0.00 0.00 0.00 45 1013.5
20200224230712 54 193 3.0 8.0 0.00 0.00 0.00 43 1013.4
20200224225712 54 176 6.0 12.0 0.00 0.00 0.00 41 1013.4
20200224224713 55 212 5.0 9.0 0.00 0.00 0.00 40 1013.3